M I D A S
Marine Information and Data Acquisition System
Tripno 394 of the Zeeleeuw from 2002-11-28 07:58:29 to 2002-11-28 15:38:08
Back to CruiseResearch ActivitiesStationsMapUnderway DataData graphs

EquipmentUnitsComment
TimeDGPSUTC
LatitudeDGPSDM.mWGS84
LongitudeDGPSDM.mWGS84
TemperatureSBE03/SBE38deg celciusITS90
ConductivitySBE21S/mITS90
SalinitySBE21 Practical Salinity Units
ChlorophylAChelsea fluorimeterg/lCalibrated in Aceton
Missing or incorrect values are displayed as -999
Sea surface data collected by the RV Zeeleeuw from 2002-11-28 07:58:29 to 2002-11-28 15:38:08
Time Latitude Longitude Temperature Conductivity Salinity ChlorophylA
2002-11-28 07:59:34 51°13.68 2°55.836 28.174115 0.070381 0.355136  
2002-11-28 08:00:34 51°13.684 2°55.768 27.106214 0.070381 0.355142  
2002-11-28 08:01:35 51°13.689 2°55.751 28.329802 0.070381 0.355147  
2002-11-28 08:02:34 51°13.727 2°55.743 27.412577 0.070381 0.355147  
2002-11-28 08:03:35 51°13.807 2°55.661 25.774552 0.070381 0.355147  
2002-11-28 08:04:34 51°13.917 2°55.583 27.366215 0.070381 0.355157  
2002-11-28 08:05:34 51°14.016 2°55.515 26.337664 0.070381 0.355162  
2002-11-28 08:06:35 51°14.097 2°55.449 24.722065 0.070381 0.383619  
2002-11-28 08:07:35 51°14.168 2°55.391 25.992414 0.070381 0.355162  
2002-11-28 08:08:35 51°14.234 2°55.325 26.393821 0.070381 0.355162  
2002-11-28 08:09:35 51°14.299 2°55.216 25.473224 0.070381 0.355162  
2002-11-28 08:10:35 51°14.407 2°54.996 26.793609 0.070381 0.355162  
2002-11-28 08:11:35 51°14.552 2°54.766 25.504113 0.070381 0.355172  
2002-11-28 08:12:34 51°14.704 2°54.549 25.47716 0.070381 0.355167  
2002-11-28 08:13:34 51°14.899 2°54.387 25.604451 0.070381 0.355182  
2002-11-28 08:14:34 51°15.094 2°54.215 25.338755 0.070381 0.355182  
2002-11-28 08:15:34 51°15.296 2°54.03 24.917013 0.070381 0.355182  
2002-11-28 08:16:34 51°15.501 2°53.843 25.102171 0.070381 0.355193  
2002-11-28 08:17:34 51°15.707 2°53.657 25.769286 0.070381 0.355193  
2002-11-28 08:18:34 51°15.912 2°53.473 25.954615 0.070381 0.355203  
2002-11-28 08:19:34 51°16.117 2°53.291 25.924064 0.070381 0.355213  
2002-11-28 08:20:34 51°16.322 2°53.109 25.335149 0.070381 0.355208  
2002-11-28 08:21:32 51°16.524 2°52.944 24.872568 0.070381 0.355213  
2002-11-28 08:22:34 51°16.741 2°52.769 25.083966 0.070381 0.355213  
2002-11-28 08:23:35 51°16.963 2°52.621 24.934843 0.070381 0.355218  
2002-11-28 08:24:34 51°17.182 2°52.49 24.863646 0.070381 0.355218  
2002-11-28 08:25:34 51°17.407 2°52.36 25.572705 0.070381 0.355223  
2002-11-28 08:26:34 51°17.64 2°52.266 26.751759 0.070381 0.355218  
2002-11-28 08:27:34 51°17.876 2°52.192 24.839406 0.070381 0.355229  
2002-11-28 08:28:34 51°18.116 2°52.137 25.846697 0.070381 0.355234  
2002-11-28 08:29:34 51°18.357 2°52.093 24.303361 0.070381 0.355234  
2002-11-28 08:30:34 51°18.599 2°52.05 24.900312 0.070381 0.355229  
2002-11-28 08:31:34 51°18.839 2°52.003 25.184167 0.070381 0.355239  
2002-11-28 08:32:35 51°19.084 2°51.961 24.448913 0.070381 0.355244  
2002-11-28 08:33:34 51°19.321 2°51.93 23.546893 0.070381 0.355249  
2002-11-28 08:34:34 51°19.563 2°51.908 25.080838 0.070381 0.355249  
2002-11-28 08:35:34 51°19.804 2°51.884 24.504902 0.070381 0.355249  
2002-11-28 08:36:34 51°20.047 2°51.877 24.519035 0.070381 0.355249  
2002-11-28 08:37:34 51°20.29 2°51.874 24.517022 0.070381 0.355254  
2002-11-28 08:38:34 51°20.531 2°51.869 23.93387 0.070381 0.355254  
2002-11-28 08:39:34 51°20.774 2°51.867 23.709531 0.070381 0.355259  
2002-11-28 08:40:35 51°21.021 2°51.864 23.8641 0.070381 0.355259  
2002-11-28 08:41:34 51°21.261 2°51.865 25.093804 0.070381 0.355264  
2002-11-28 08:42:34 51°21.506 2°51.869 24.226508 0.070381 0.355264  
2002-11-28 08:43:34 51°21.751 2°51.874 23.954202 0.070381 0.355264  
2002-11-28 08:44:35 51°21.997 2°51.947 24.181029 0.070381 0.35527  
2002-11-28 08:45:34 51°22.198 2°52.159 24.169808 0.070381 0.355254  
2002-11-28 08:46:34 51°22.335 2°52.489 23.918626 0.070381 0.355254  
2002-11-28 08:47:34 51°22.47 2°52.82 24.024727 0.070381 0.355249  
2002-11-28 08:48:34 51°22.615 2°53.143 23.162516 0.070381 0.355264  
2002-11-28 08:49:34 51°22.758 2°53.466 23.987311 0.070381 0.355264  
2002-11-28 08:50:35 51°22.91 2°53.792 24.659722 0.070381 0.355264  
2002-11-28 08:51:35 51°23.063 2°54.111 24.300465 0.070381 0.355264  
2002-11-28 08:52:35 51°23.214 2°54.424 25.175998 0.070381 0.355275  
2002-11-28 08:53:34 51°23.361 2°54.734 24.559975 0.070381 0.355275  
2002-11-28 08:54:34 51°23.51 2°55.046 23.507034 0.070381 0.355275  
2002-11-28 08:55:34 51°23.672 2°55.344 23.937048 0.070381 0.355285  
2002-11-28 08:56:35 51°23.872 2°55.583 25.044602 0.070381 0.355295  
2002-11-28 08:57:34 51°24.103 2°55.694 25.092146 0.070381 0.355295  
2002-11-28 08:58:34 51°24.346 2°55.738 24.85718 0.070381 0.355295  
2002-11-28 08:59:34 51°24.59 2°55.775 24.765617 0.070381 0.355306  
2002-11-28 09:00:34 51°24.835 2°55.803 26.369712 0.070381 0.355311  
2002-11-28 09:01:34 51°25.08 2°55.82 24.421568 0.070381 0.355321  
2002-11-28 09:02:34 51°25.325 2°55.844 25.270921 0.070381 0.355311  
2002-11-28 09:03:34 51°25.571 2°55.865 24.469482 0.070381 0.355306  
2002-11-28 09:04:35 51°25.822 2°55.889 25.320196 0.070381 0.355311  
2002-11-28 09:05:34 51°26.062 2°55.914 24.654262 0.070381 0.355316  
2002-11-28 09:06:34 51°26.307 2°55.936 24.979137 0.070381 0.355321  
2002-11-28 09:07:34 51°26.549 2°55.963 25.139583 0.070381 0.355316  
2002-11-28 09:08:34 51°26.793 2°55.986 24.719565 0.070381 0.355316  
2002-11-28 09:09:32 51°27.028 2°56.017 25.601794 0.070381 0.355331  
2002-11-28 09:10:34 51°27.281 2°56.048 25.23241 0.070381 0.355321  
2002-11-28 09:11:34 51°27.486 2°56.053 24.696301 0.070381 0.355316  
2002-11-28 09:12:35 51°27.553 2°55.947 24.779586 0.070381 0.355352  
2002-11-28 09:13:33 51°27.51 2°55.907 24.63257 0.070381 0.355331  
2002-11-28 09:14:35 51°27.425 2°55.956 24.082572 0.070381 0.355336  
2002-11-28 09:15:34 51°27.361 2°56.078 23.89997 0.070381 0.355357  
2002-11-28 09:16:34 51°27.362 2°56.137 25.651558 0.070381 0.355347  
2002-11-28 09:17:35 51°27.384 2°56.164 25.331618 0.070381 0.355362  
2002-11-28 09:18:35 51°27.405 2°56.194 24.845722 0.070381 0.355352  
2002-11-28 09:19:35 51°27.428 2°56.225 24.115432 0.070381 0.355357  
2002-11-28 09:20:35 51°27.448 2°56.257 24.567834 0.070381 0.355367  
2002-11-28 09:21:32 51°27.467 2°56.289 25.343526 0.070381 0.355372  
2002-11-28 09:22:34 51°27.487 2°56.323 24.871434 0.070381 0.355372  
2002-11-28 09:23:32 51°27.505 2°56.355 25.111328 0.070381 0.355367  
2002-11-28 09:24:35 51°27.525 2°56.389 25.566752 0.070277 0.354837  
2002-11-28 09:25:35 51°27.534 2°56.48 24.531912 0.070381 0.355362  
2002-11-28 09:26:35 51°27.646 2°56.745 25.429566 0.070277 0.354821  
2002-11-28 09:27:35 51°27.827 2°57.01 25.251028 0.070277 0.354837  
2002-11-28 09:28:33 51°27.992 2°57.273 26.497613 0.070381 0.355377  
2002-11-28 09:29:35 51°28.172 2°57.556 25.046488 0.070381 0.355377  
2002-11-28 09:30:35 51°28.345 2°57.833 25.840653 0.070381 0.355367  
2002-11-28 09:31:35 51°28.52 2°58.105 26.904564 0.070277 0.354837  
2002-11-28 09:32:35 51°28.701 2°58.376 25.418423 0.070277 0.354842  
2002-11-28 09:33:35 51°28.883 2°58.643 25.424351 0.070277 0.354842  
2002-11-28 09:34:35 51°29.07 2°58.903 25.070018 0.070277 0.354852  
2002-11-28 09:35:35 51°29.277 2°59.096 24.818904 0.070277 0.354862  
2002-11-28 09:36:35 51°29.518 2°59.107 25.320685 0.070277 0.354867  
2002-11-28 09:37:35 51°29.762 2°59.086 26.186132 0.070277 0.354867  
2002-11-28 09:38:35 51°30.006 2°59.059 26.315835 0.070277 0.354867  
2002-11-28 09:39:35 51°30.25 2°59.039 25.717061 0.070277 0.354867  
2002-11-28 09:40:35 51°30.493 2°59.013 26.872491 0.070277 0.354898  
2002-11-28 09:41:35 51°30.734 2°58.995 25.293026 0.070277 0.354888  
2002-11-28 09:42:33 51°30.936 2°59.006 25.666967 0.070277 0.354888  
2002-11-28 09:43:35 51°31.033 2°59.169 25.286147 0.070277 0.354893  
2002-11-28 09:44:35 51°31.141 2°59.243 25.672651 0.070277 0.354898  
2002-11-28 09:45:35 51°31.228 2°59.151 24.633594 0.070277 0.354893  
2002-11-28 09:46:35 51°31.228 2°59.016 26.276087 0.070277 0.354888  
2002-11-28 09:47:35 51°31.161 2°58.972 25.494705 0.070277 0.354878  
2002-11-28 09:48:35 51°31.073 2°59.005 25.10349 0.070277 0.354878  
2002-11-28 09:49:35 51°30.978 2°59.016 24.958334 0.070277 0.354893  
2002-11-28 09:50:35 51°30.882 2°58.992 25.618972 0.070277 0.354893  
2002-11-28 09:51:35 51°30.804 2°58.992 25.295845 0.070277 0.354903  
2002-11-28 09:52:35 51°30.77 2°59 24.810051 0.070277 0.354898  
2002-11-28 09:53:35 51°30.78 2°59.011 25.839795 0.070277 0.354908  
2002-11-28 09:54:35 51°30.798 2°59.024 24.776331 0.070277 0.354908  
2002-11-28 09:55:35 51°30.807 2°59.023 25.065267 0.070277 0.354914  
2002-11-28 09:56:35 51°30.818 2°58.978 23.706496 0.070277 0.354924  
2002-11-28 09:57:35 51°30.853 2°58.908 25.056029 0.070277 0.354919  
2002-11-28 09:58:35 51°30.97 2°58.832 25.802627 0.070277 0.354908  
2002-11-28 09:59:35 51°31.17 2°58.696 24.522948 0.070277 0.35496  
2002-11-28 10:00:35 51°31.181 2°58.364 25.667864 0.070277 0.354924  
2002-11-28 10:01:35 51°31.142 2°58.017 25.095349 0.070277 0.354939  
2002-11-28 10:02:35 51°31.118 2°57.665 24.551622 0.070277 0.354939  
2002-11-28 10:03:35 51°31.094 2°57.313 24.687584 0.070277 0.354949  
2002-11-28 10:04:35 51°31.068 2°56.963 25.190716 0.070277 0.354955  
2002-11-28 10:05:35 51°31.044 2°56.611 25.140751 0.070277 0.354949  
2002-11-28 10:06:35 51°31.017 2°56.263 25.70682 0.070277 0.354949  
2002-11-28 10:07:35 51°31.015 2°55.908 26.384452 0.070277 0.354955  
2002-11-28 10:08:35 51°31.076 2°55.566 25.539035 0.070277 0.354965  
2002-11-28 10:09:35 51°31.236 2°55.294 25.826251 0.070277 0.354965  
2002-11-28 10:10:35 51°31.446 2°55.129 25.668986 0.070277 0.354965  
2002-11-28 10:11:35 51°31.682 2°55.205 27.038373 0.070277 0.354944  
2002-11-28 10:12:35 51°31.887 2°55.407 25.570272 0.070277 0.354965  
2002-11-28 10:13:35 51°32.093 2°55.612 24.936808 0.070277 0.354965  
2002-11-28 10:14:33 51°32.297 2°55.805 25.934162 0.070277 0.35496  
2002-11-28 10:15:35 51°32.517 2°55.989 26.069442 0.070277 0.354965  
2002-11-28 10:16:35 51°32.741 2°56.146 25.741908 0.070277 0.35498  
2002-11-28 10:17:35 51°32.962 2°56.308 26.604214 0.070277 0.355001  
2002-11-28 10:18:35 51°33.182 2°56.472 25.383518 0.070277 0.354985  
2002-11-28 10:19:35 51°33.407 2°56.621 26.410149 0.070277 0.355011  
2002-11-28 10:20:35 51°33.631 2°56.771 26.375564 0.070277 0.354985  
2002-11-28 10:21:35 51°33.851 2°56.919 25.999599 0.070277 0.355001  
2002-11-28 10:22:35 51°34.072 2°57.063 26.00831 0.070277 0.355006  
2002-11-28 10:23:35 51°34.296 2°57.211 24.538065 0.070277 0.355006  
2002-11-28 10:24:35 51°34.521 2°57.302 26.892465 0.070277 0.355011  
2002-11-28 10:25:35 51°34.655 2°57.05 26.138326 0.070277 0.355026  
2002-11-28 10:26:35 51°34.55 2°56.773 26.855308 0.070277 0.35499  
2002-11-28 10:27:35 51°34.421 2°56.492 26.340073 0.070277 0.355011  
2002-11-28 10:28:35 51°34.3 2°56.199 27.34231 0.070277 0.355011  
2002-11-28 10:29:35 51°34.181 2°55.905 27.046485 0.070277 0.355026  
2002-11-28 10:30:35 51°34.068 2°55.604 26.762629 0.070277 0.355026  
2002-11-28 10:31:35 51°33.956 2°55.3 28.170608 0.070277 0.355026  
2002-11-28 10:32:35 51°33.845 2°54.996 26.476793 0.070277 0.355031  
2002-11-28 10:33:35 51°33.733 2°54.694 25.7949 0.070277 0.355026  
2002-11-28 10:34:35 51°33.621 2°54.389 26.472169 0.070277 0.355037  
2002-11-28 10:35:35 51°33.51 2°54.085 26.663895 0.070277 0.355037  
2002-11-28 10:36:35 51°33.398 2°53.781 25.786761 0.070277 0.355042  
2002-11-28 10:37:35 51°33.286 2°53.478 26.102126 0.070277 0.355057  
2002-11-28 10:38:35 51°33.176 2°53.172 25.870717 0.070277 0.355052  
2002-11-28 10:39:35 51°33.065 2°52.865 26.645556 0.070277 0.355062  
2002-11-28 10:40:35 51°32.954 2°52.56 25.188608 0.070277 0.355062  
2002-11-28 10:41:35 51°32.845 2°52.254 26.208445 0.070277 0.355062  
2002-11-28 10:42:35 51°32.734 2°51.948 25.914299 0.070277 0.355067  
2002-11-28 10:43:35 51°32.624 2°51.641 24.342785 0.070277 0.355078  
2002-11-28 10:44:35 51°32.513 2°51.334 25.325757 0.070277 0.355072  
2002-11-28 10:45:35 51°32.402 2°51.027 24.580854 0.070277 0.355083  
2002-11-28 10:46:35 51°32.291 2°50.718 24.84402 0.070277 0.355083  
2002-11-28 10:47:35 51°32.18 2°50.409 24.573984 0.070277 0.355093  
2002-11-28 10:48:35 51°32.068 2°50.102 25.328049 0.070277 0.355093  
2002-11-28 10:49:35 51°31.956 2°49.795 24.930613 0.070277 0.355098  
2002-11-28 10:50:35 51°31.83 2°49.507 24.565025 0.070277 0.355103  
2002-11-28 10:51:35 51°31.655 2°49.294 24.769062 0.070277 0.355108  
2002-11-28 10:52:35 51°31.478 2°49.086 26.624002 0.070277 0.355114  
2002-11-28 10:53:35 51°31.302 2°48.875 25.101681 0.070277 0.355119  
2002-11-28 10:54:35 51°31.125 2°48.662 25.331618 0.070277 0.355124  
2002-11-28 10:55:35 51°30.942 2°48.464 26.497798 0.070277 0.355129  
2002-11-28 10:56:35 51°30.757 2°48.272 25.507449 0.070277 0.355139  
2002-11-28 10:57:35 51°30.573 2°48.075 25.793631 0.070277 0.355144  
2002-11-28 10:58:35 51°30.387 2°47.88 24.413998 0.070277 0.355149  
2002-11-28 10:59:35 51°30.203 2°47.683 26.08889 0.070277 0.35516  
2002-11-28 11:00:35 51°30.019 2°47.485 26.073681 0.070277 0.35516  
2002-11-28 11:01:35 51°29.835 2°47.288 25.778808 0.070277 0.35516  
2002-11-28 11:02:35 51°29.666 2°47.064 25.515993 0.070277 0.355165  
2002-11-28 11:03:35 51°29.622 2°46.72 25.946904 0.070277 0.355185  
2002-11-28 11:04:35 51°29.631 2°46.357 24.937978 0.070277 0.355191  
2002-11-28 11:05:35 51°29.625 2°45.994 25.350662 0.070277 0.355185  
2002-11-28 11:06:35 51°29.615 2°45.631 25.572855 0.070277 0.355185  
2002-11-28 11:07:35 51°29.609 2°45.267 26.466953 0.070277 0.355196  
2002-11-28 11:08:35 51°29.602 2°44.904 24.916635 0.070277 0.355206  
2002-11-28 11:09:35 51°29.593 2°44.541 25.300843 0.070277 0.355201  
2002-11-28 11:10:35 51°29.584 2°44.175 25.282876 0.070277 0.355211  
2002-11-28 11:11:35 51°29.577 2°43.811 25.955658 0.070277 0.355226  
2002-11-28 11:12:35 51°29.58 2°43.446 25.537911 0.070277 0.355221  
2002-11-28 11:13:35 51°29.592 2°43.08 26.10458 0.070277 0.355232  
2002-11-28 11:14:35 51°29.607 2°42.714 25.591425 0.070277 0.355237  
2002-11-28 11:15:35 51°29.621 2°42.349 26.03291 0.070277 0.355237  
2002-11-28 11:16:35 51°29.635 2°41.983 26.15876 0.070277 0.355252  
2002-11-28 11:17:35 51°29.649 2°41.618 26.08692 0.070277 0.355257  
2002-11-28 11:18:35 51°29.662 2°41.253 25.998482 0.070277 0.355268  
2002-11-28 11:19:35 51°29.676 2°40.886 25.431442 0.070277 0.355268  
2002-11-28 11:20:35 51°29.688 2°40.518 25.591275 0.070277 0.355268  
2002-11-28 11:21:35 51°29.701 2°40.15 26.453117 0.070277 0.355278  
2002-11-28 11:22:35 51°29.715 2°39.782 25.61276 0.070277 0.355273  
2002-11-28 11:23:35 51°29.725 2°39.414 25.468461 0.070277 0.355283  
2002-11-28 11:24:35 51°29.736 2°39.047 26.549917 0.070277 0.355288  
2002-11-28 11:25:35 51°29.745 2°38.679 25.793892 0.070277 0.355288  
2002-11-28 11:26:35 51°29.755 2°38.31 25.773207 0.070277 0.355293  
2002-11-28 11:27:35 51°29.73 2°37.951 26.238285 0.070277 0.355309  
2002-11-28 11:28:35 51°29.644 2°37.617 26.163626 0.070277 0.355309  
2002-11-28 11:29:35 51°29.485 2°37.378 26.989977 0.070277 0.355304  
2002-11-28 11:30:35 51°29.304 2°37.169 25.852964 0.070277 0.355309  
2002-11-28 11:31:35 51°29.127 2°36.948 26.647807 0.070277 0.355329  
2002-11-28 11:32:35 51°28.951 2°36.727 25.872768 0.070277 0.355324  
2002-11-28 11:33:35 51°28.775 2°36.504 26.099189 0.070277 0.355334  
2002-11-28 11:34:35 51°28.599 2°36.282 26.051625 0.070277 0.35534  
2002-11-28 11:35:35 51°28.424 2°36.058 25.906062 0.070277 0.355345  
2002-11-28 11:36:35 51°28.248 2°35.834 26.09826 0.070277 0.355345  
2002-11-28 11:37:35 51°28.072 2°35.611 26.293146 0.070277 0.35535  
2002-11-28 11:38:35 51°27.894 2°35.387 25.692616 0.070277 0.355365  
2002-11-28 11:39:35 51°27.717 2°35.161 26.378601 0.070277 0.355365  
2002-11-28 11:40:35 51°27.54 2°34.933 25.936323 0.070277 0.35537  
2002-11-28 11:41:35 51°27.361 2°34.707 26.520979 0.070277 0.355375  
2002-11-28 11:42:35 51°27.182 2°34.48 26.072305 0.070277 0.35537  
2002-11-28 11:43:35 51°27.001 2°34.256 26.452747 0.070277 0.355381  
2002-11-28 11:44:35 51°26.82 2°34.035 26.062263 0.070277 0.355381  
2002-11-28 11:45:35 51°26.638 2°33.814 26.445273 0.070277 0.355375  
2002-11-28 11:46:35 51°26.455 2°33.593 26.605137 0.070277 0.355386  
2002-11-28 11:47:35 51°26.273 2°33.371 26.919272 0.070277 0.355386  
2002-11-28 11:48:35 51°26.087 2°33.157 27.493759 0.070277 0.355401  
2002-11-28 11:49:35 51°25.879 2°32.991 27.836093 0.070277 0.355391  
2002-11-28 11:50:35 51°25.662 2°32.869 29.29336 0.070277 0.355391  
2002-11-28 11:51:35 51°25.438 2°32.839 26.775192 0.070277 0.355391  
2002-11-28 11:52:35 51°25.21 2°32.839 27.984875 0.070277 0.355401  
2002-11-28 11:53:35 51°24.986 2°32.857 28.168222 0.070277 0.355406  
2002-11-28 11:54:35 51°24.766 2°32.938 27.531436 0.070277 0.355396  
2002-11-28 11:55:35 51°24.544 2°33.015 26.816734 0.070277 0.355406  
2002-11-28 11:56:35 51°24.32 2°33.09 27.4243 0.070277 0.355411  
2002-11-28 11:57:35 51°24.097 2°33.164 27.174213 0.070277 0.355411  
2002-11-28 11:58:35 51°23.872 2°33.228 28.248333 0.070277 0.355411  
2002-11-28 11:59:35 51°23.644 2°33.222 27.10328 0.070277 0.355427  
2002-11-28 12:00:35 51°23.416 2°33.136 27.115932 0.070277 0.355427  
2002-11-28 12:01:35 51°23.192 2°33.028 27.960551 0.070277 0.355422  
2002-11-28 12:02:35 51°22.97 2°32.909 28.534868 0.070277 0.355437  
2002-11-28 12:03:35 51°22.746 2°32.813 28.871584 0.070277 0.355442  
2002-11-28 12:04:35 51°22.516 2°32.781 29.023437 0.070277 0.355442  
2002-11-28 12:05:35 51°22.285 2°32.752 27.64865 0.070277 0.355432  
2002-11-28 12:06:35 51°22.055 2°32.72 26.762703 0.070277 0.355432  
2002-11-28 12:07:35 51°21.826 2°32.689 27.01216 0.070277 0.355432  
2002-11-28 12:08:35 51°21.597 2°32.657 27.59238 0.070277 0.355437  
2002-11-28 12:09:35 51°21.366 2°32.627 27.749575 0.070277 0.355432  
2002-11-28 12:10:35 51°21.136 2°32.595 26.77125 0.070277 0.355432  
2002-11-28 12:11:35 51°20.904 2°32.567 27.802856 0.070277 0.355437  
2002-11-28 12:12:35 51°20.671 2°32.548 27.935096 0.070277 0.355432  
2002-11-28 12:13:35 51°20.439 2°32.529 26.597161 0.070277 0.355437  
2002-11-28 12:14:35 51°20.207 2°32.519 27.207438 0.070277 0.355437  
2002-11-28 12:15:35 51°19.972 2°32.511 26.854756 0.070277 0.355437  
2002-11-28 12:16:35 51°19.74 2°32.501 27.526659 0.070277 0.355437  
2002-11-28 12:17:35 51°19.509 2°32.492 27.089672 0.070277 0.355442  
2002-11-28 12:18:35 51°19.277 2°32.482 26.739451 0.070277 0.355447  
2002-11-28 12:19:35 51°19.044 2°32.47 27.436532 0.070277 0.355447  
2002-11-28 12:20:35 51°18.812 2°32.459 26.485632 0.070277 0.355447  
2002-11-28 12:21:35 51°18.585 2°32.389 27.369029 0.070277 0.355453  
2002-11-28 12:22:35 51°18.365 2°32.265 27.047146 0.070277 0.355447  
2002-11-28 12:23:35 51°18.153 2°32.106 27.507658 0.070277 0.355447  
2002-11-28 12:24:35 51°17.952 2°31.915 27.311011 0.070277 0.355442  
2002-11-28 12:25:35 51°17.754 2°31.72 27.166738 0.070277 0.355447  
2002-11-28 12:26:35 51°17.556 2°31.52 27.567309 0.070277 0.355447  
2002-11-28 12:27:35 51°17.362 2°31.312 27.338655 0.070277 0.355447  
2002-11-28 12:28:35 51°17.168 2°31.105 26.350781 0.070277 0.355447  
2002-11-28 12:29:35 51°16.972 2°30.899 27.416667 0.070277 0.355442  
2002-11-28 12:30:35 51°16.776 2°30.693 27.097118 0.070277 0.355437  
2002-11-28 12:31:35 51°16.58 2°30.485 27.491059 0.070277 0.355437  
2002-11-28 12:32:35 51°16.383 2°30.277 27.023872 0.070277 0.355442  
2002-11-28 12:33:35 51°16.185 2°30.069 26.349707 0.070277 0.355437  
2002-11-28 12:34:35 51°15.99 2°29.861 26.072305 0.070277 0.355437  
2002-11-28 12:35:35 51°15.792 2°29.652 26.387193 0.070277 0.355442  
2002-11-28 12:36:35 51°15.594 2°29.445 26.882019 0.070277 0.355442  
2002-11-28 12:37:35 51°15.396 2°29.236 26.344038 0.070277 0.355447  
2002-11-28 12:38:35 51°15.197 2°29.028 26.934051 0.070173 0.354906  
2002-11-28 12:39:35 51°14.997 2°28.819 25.755804 0.070277 0.355447  
2002-11-28 12:40:35 51°14.797 2°28.61 26.799943 0.070277 0.355453  
2002-11-28 12:41:35 51°14.598 2°28.401 25.684691 0.070173 0.354906  
2002-11-28 12:42:35 51°14.397 2°28.192 27.685194 0.070277 0.355447  
2002-11-28 12:43:35 51°14.197 2°27.981 26.371341 0.070173 0.354911  
2002-11-28 12:44:35 51°13.997 2°27.773 26.985679 0.070173 0.354906  
2002-11-28 12:45:35 51°13.797 2°27.564 26.233721 0.070173 0.354906  
2002-11-28 12:46:35 51°13.597 2°27.357 27.421342 0.070277 0.355442  
2002-11-28 12:47:35 51°13.396 2°27.148 26.798654 0.070173 0.354901  
2002-11-28 12:48:35 51°13.194 2°26.941 27.495437 0.070173 0.354896  
2002-11-28 12:49:35 51°12.993 2°26.73 27.063183 0.070277 0.355432  
2002-11-28 12:50:35 51°12.795 2°26.512 28.083029 0.070173 0.354896  
2002-11-28 12:51:35 51°12.596 2°26.292 27.587862 0.070173 0.354891  
2002-11-28 12:52:35 51°12.396 2°26.073 27.203446 0.070173 0.354885  
2002-11-28 12:53:35 51°12.198 2°25.851 27.331781 0.070173 0.35488  
2002-11-28 12:54:35 51°11.994 2°25.643 27.642461 0.070173 0.354885  
2002-11-28 12:55:35 51°11.773 2°25.49 26.449528 0.070173 0.35488  
2002-11-28 12:56:35 51°11.546 2°25.366 26.027961 0.070173 0.35488  
2002-11-28 12:57:35 51°11.319 2°25.243 27.362049 0.070173 0.354875  
2002-11-28 12:58:35 51°11.088 2°25.157 27.130781 0.070277 0.355422  
2002-11-28 12:59:35 51°10.86 2°25.181 27.467195 0.070173 0.35487  
2002-11-28 13:00:35 51°10.674 2°25.365 27.632156 0.070173 0.354865  
2002-11-28 13:01:35 51°10.593 2°25.671 27.417763 0.070173 0.35487  
2002-11-28 13:02:35 51°10.648 2°26.002 27.032243 0.070173 0.35486  
2002-11-28 13:03:35 51°10.713 2°26.332 27.189124 0.070173 0.354875  
2002-11-28 13:04:35 51°10.778 2°26.663 27.588991 0.070173 0.354875  
2002-11-28 13:05:35 51°10.842 2°26.997 28.638772 0.070173 0.354865  
2002-11-28 13:06:35 51°10.91 2°27.333 27.458545 0.070173 0.354855  
2002-11-28 13:07:35 51°10.975 2°27.664 27.292759 0.070173 0.354849  
2002-11-28 13:08:35 51°11.051 2°27.987 28.243421 0.070277 0.355381  
2002-11-28 13:09:35 51°11.138 2°28.308 27.750702 0.070173 0.354844  
2002-11-28 13:10:35 51°11.242 2°28.615 28.171729 0.070173 0.354839  
2002-11-28 13:11:35 51°11.369 2°28.901 27.197915 0.070173 0.354839  
2002-11-28 13:12:35 51°11.498 2°29.181 27.918955 0.070173 0.354839  
2002-11-28 13:13:35 51°11.634 2°29.451 28.101161 0.070173 0.354834  
2002-11-28 13:14:35 51°11.772 2°29.721 27.54562 0.070173 0.354834  
2002-11-28 13:15:35 51°11.91 2°29.989 28.113608 0.070173 0.354829  
2002-11-28 13:16:35 51°12.049 2°30.258 27.283393 0.070173 0.354819  
2002-11-28 13:17:35 51°12.189 2°30.529 26.570791 0.070173 0.354824  
2002-11-28 13:18:35 51°12.326 2°30.802 27.166005 0.070173 0.354813  
2002-11-28 13:19:35 51°12.463 2°31.072 27.119635 0.070173 0.354803  
2002-11-28 13:20:35 51°12.602 2°31.344 27.428974 0.070173 0.354808  
2002-11-28 13:21:35 51°12.741 2°31.614 26.959888 0.070173 0.354808  
2002-11-28 13:22:35 51°12.878 2°31.884 28.304797 0.070173 0.354808  
2002-11-28 13:23:35 51°13.001 2°32.169 28.451677 0.070173 0.354798  
2002-11-28 13:24:35 51°13.059 2°32.505 28.404227 0.070277 0.35534  
2002-11-28 13:25:35 51°13.107 2°32.85 27.826432 0.070173 0.354793  
2002-11-28 13:26:35 51°13.149 2°33.199 28.308153 0.070173 0.354793  
2002-11-28 13:27:35 51°13.192 2°33.547 27.545437 0.070277 0.355324  
2002-11-28 13:28:35 51°13.235 2°33.895 27.252911 0.070173 0.354778  
2002-11-28 13:29:35 51°13.275 2°34.242 26.960586 0.070173 0.354772  
2002-11-28 13:30:35 51°13.348 2°34.574 28.813179 0.070277 0.355319  
2002-11-28 13:31:35 51°13.438 2°34.896 27.27388 0.070277 0.355298  
2002-11-28 13:32:35 51°13.525 2°35.217 27.734158 0.070173 0.354762  
2002-11-28 13:33:35 51°13.614 2°35.536 26.99332 0.070173 0.354757  
2002-11-28 13:34:35 51°13.701 2°35.859 28.698102 0.070277 0.355293  
2002-11-28 13:35:35 51°13.786 2°36.18 26.979508 0.070277 0.355283  
2002-11-28 13:36:35 51°13.871 2°36.503 27.909015 0.070277 0.355283  
2002-11-28 13:37:35 51°13.955 2°36.828 27.149 0.070277 0.355278  
2002-11-28 13:38:35 51°14.036 2°37.154 26.847911 0.070277 0.355278  
2002-11-28 13:39:35 51°14.099 2°37.488 27.812338 0.070277 0.355273  
2002-11-28 13:40:35 51°14.132 2°37.835 27.887316 0.070277 0.355278  
2002-11-28 13:41:35 51°14.165 2°38.182 27.421232 0.070277 0.355268  
2002-11-28 13:42:35 51°14.181 2°38.534 28.269891 0.070277 0.355257  
2002-11-28 13:43:35 51°14.107 2°38.868 28.154916 0.070277 0.355262  
2002-11-28 13:44:35 51°13.92 2°39.066 27.930454 0.070277 0.355252  
2002-11-28 13:45:35 51°13.691 2°39.032 27.9715 0.070277 0.355257  
2002-11-28 13:46:35 51°13.477 2°38.866 27.474968 0.070277 0.355252  
2002-11-28 13:47:35 51°13.284 2°38.642 27.507694 0.070277 0.355247  
2002-11-28 13:48:35 51°13.096 2°38.405 26.827631 0.070277 0.355252  
2002-11-28 13:49:35 51°12.908 2°38.167 27.709207 0.070277 0.355242  
2002-11-28 13:50:35 51°12.721 2°37.931 27.738703 0.070277 0.355247  
2002-11-28 13:51:35 51°12.533 2°37.694 27.687122 0.070277 0.355247  
2002-11-28 13:52:35 51°12.346 2°37.458 28.316128 0.070277 0.355237  
2002-11-28 13:53:35 51°12.158 2°37.22 28.116105 0.070277 0.355232  
2002-11-28 13:54:35 51°11.97 2°36.986 27.552072 0.070277 0.355232  
2002-11-28 13:55:35 51°11.774 2°36.772 26.807345 0.070277 0.355226  
2002-11-28 13:56:35 51°11.575 2°36.559 27.650798 0.070277 0.355226  
2002-11-28 13:57:35 51°11.377 2°36.348 27.479092 0.070277 0.355221  
2002-11-28 13:58:35 51°11.179 2°36.134 27.061679 0.070277 0.355226  
2002-11-28 13:59:35 51°10.981 2°35.921 26.428842 0.070277 0.355221  
2002-11-28 14:00:35 51°10.774 2°35.741 27.368444 0.070277 0.355232  
2002-11-28 14:01:35 51°10.543 2°35.655 27.784507 0.070277 0.355226  
2002-11-28 14:02:35 51°10.307 2°35.651 25.889026 0.070277 0.355226  
2002-11-28 14:03:35 51°10.08 2°35.739 27.317593 0.070277 0.355226  
2002-11-28 14:04:35 51°9.86 2°35.87 28.141101 0.070277 0.355226  
2002-11-28 14:05:35 51°9.643 2°35.994 28.032845 0.070277 0.355237  
2002-11-28 14:06:35 51°9.481 2°36.071 27.472669 0.070277 0.355237  
2002-11-28 14:07:35 51°9.395 2°36.056 26.546037 0.070277 0.355242  
2002-11-28 14:08:35 51°9.358 2°36.028 26.308643 0.070277 0.355242  
2002-11-28 14:09:35 51°9.352 2°36.02 26.774161 0.070277 0.355237  
2002-11-28 14:10:35 51°9.349 2°36.012 19.695899 0.070277 0.355237  
2002-11-28 14:11:35 51°9.348 2°36.005 19.741483 0.070277 0.355237  
2002-11-28 14:12:34 51°9.35 2°36.001 19.878342 0.070277 0.355237  
2002-11-28 14:13:35 51°9.262 2°35.97 19.649716 0.070277 0.355252  
2002-11-28 14:14:35 51°9.122 2°36.096 19.62942 0.070277 0.355232  
2002-11-28 14:15:35 51°9.015 2°36.108 19.773318 0.070277 0.355262  
2002-11-28 14:16:35 51°8.951 2°36.055 19.814713 0.070277 0.355262  
2002-11-28 14:17:35 51°8.905 2°36.003 19.787606 0.070277 0.355268  
2002-11-28 14:18:35 51°8.88 2°35.949 19.85499 0.070277 0.355283  
2002-11-28 14:19:35 51°8.871 2°35.898 19.693095 0.070277 0.355273  
2002-11-28 14:20:35 51°8.871 2°35.846 19.765482 0.070277 0.355283  
2002-11-28 14:21:35 51°8.868 2°35.793 19.804245 0.070277 0.355283  
2002-11-28 14:22:35 51°8.863 2°35.741 19.845217 0.070277 0.355288  
2002-11-28 14:23:35 51°8.855 2°35.691 19.885921 0.070277 0.355298  
2002-11-28 14:24:35 51°8.847 2°35.602 19.788052 0.070277 0.355309  
2002-11-28 14:25:35 51°8.941 2°35.434 19.806111 0.070277 0.355334  
2002-11-28 14:26:35 51°9.079 2°35.565 19.89269 0.070277 0.355319  
2002-11-28 14:27:35 51°9.171 2°35.871 20.002594 0.070277 0.355345  
2002-11-28 14:28:35 51°9.263 2°36.195 19.907926 0.070277 0.35534  
2002-11-28 14:29:35 51°9.353 2°36.52 20.058614 0.070277 0.35534  
2002-11-28 14:30:35 51°9.437 2°36.853 19.90509 0.070277 0.355345  
2002-11-28 14:31:35 51°9.52 2°37.186 19.719589 0.070277 0.355345  
2002-11-28 14:32:35 51°9.602 2°37.52 20.129334 0.070277 0.355355  
2002-11-28 14:33:35 51°9.678 2°37.859 19.872059 0.070277 0.355355  
2002-11-28 14:34:35 51°9.754 2°38.198 19.857017 0.070277 0.35536  
2002-11-28 14:35:34 51°9.83 2°38.528 20.000328 0.070277 0.35536  
2002-11-28 14:36:35 51°9.908 2°38.873 19.848866 0.070277 0.355365  
2002-11-28 14:37:35 51°9.984 2°39.212 19.960337 0.070277 0.35536  
2002-11-28 14:38:35 51°10.06 2°39.554 19.905698 0.070277 0.35536  
2002-11-28 14:39:35 51°10.134 2°39.895 19.951753 0.070277 0.355365  
2002-11-28 14:40:35 51°10.204 2°40.239 20.233626 0.070277 0.355365  
2002-11-28 14:41:35 51°10.272 2°40.582 20.116811 0.070277 0.35537  
2002-11-28 14:42:35 51°10.34 2°40.926 20.061687 0.070277 0.355375  
2002-11-28 14:43:35 51°10.408 2°41.27 20.113297 0.070277 0.355375  
2002-11-28 14:44:35 51°10.486 2°41.61 20.188885 0.070277 0.355381  
2002-11-28 14:45:35 51°10.566 2°41.949 20.002351 0.070277 0.355381  
2002-11-28 14:46:35 51°10.647 2°42.288 20.050042 0.070277 0.355381  
2002-11-28 14:47:36 51°10.73 2°42.635 20.163415 0.070277 0.355381  
2002-11-28 14:48:35 51°10.81 2°42.972 20.111882 0.070277 0.355381  
2002-11-28 14:49:35 51°10.893 2°43.311 20.290108 0.070277 0.355381  
2002-11-28 14:50:35 51°10.975 2°43.65 20.180006 0.070277 0.355375  
2002-11-28 14:51:35 51°11.057 2°43.988 20.094265 0.070277 0.355375  
2002-11-28 14:52:35 51°11.14 2°44.327 20.143671 0.070277 0.355375  
2002-11-28 14:53:35 51°11.227 2°44.662 20.090386 0.070277 0.35537  
2002-11-28 14:54:35 51°11.32 2°44.994 20.368767 0.070277 0.35537  
2002-11-28 14:55:35 51°11.414 2°45.329 20.320406 0.070277 0.355375  
2002-11-28 14:56:35 51°11.508 2°45.66 20.202928 0.070277 0.355365  
2002-11-28 14:57:35 51°11.599 2°45.989 20.378428 0.070277 0.355365  
2002-11-28 14:58:35 51°11.7 2°46.315 20.296595 0.070277 0.355365  
2002-11-28 14:59:35 51°11.802 2°46.64 20.168179 0.070277 0.35537  
2002-11-28 15:00:35 51°11.904 2°46.964 20.651948 0.070277 0.35537  
2002-11-28 15:01:35 51°12.006 2°47.29 20.400199 0.070277 0.355375  
2002-11-28 15:02:35 51°12.108 2°47.612 20.410498 0.070277 0.355375  
2002-11-28 15:03:35 51°12.218 2°47.93 20.487939 0.070277 0.355375  
2002-11-28 15:04:36 51°12.33 2°48.254 20.439538 0.070277 0.355381  
2002-11-28 15:05:35 51°12.44 2°48.565 20.385752 0.070277 0.355381  
2002-11-28 15:06:35 51°12.552 2°48.883 20.43049 0.070277 0.355381  
2002-11-28 15:07:35 51°12.663 2°49.202 20.310496 0.070277 0.355386  
2002-11-28 15:08:35 51°12.776 2°49.521 20.392151 0.070277 0.355381  
2002-11-28 15:09:36 51°12.89 2°49.846 20.332328 0.070277 0.355386  
2002-11-28 15:10:35 51°13.001 2°50.16 20.380118 0.070277 0.355381  
2002-11-28 15:11:35 51°13.114 2°50.478 20.399555 0.070277 0.35537  
2002-11-28 15:12:35 51°13.228 2°50.797 20.346302 0.070277 0.355375  
2002-11-28 15:13:35 51°13.349 2°51.108 20.452325 0.070277 0.35537  
2002-11-28 15:14:35 51°13.47 2°51.422 20.431093 0.070277 0.355365  
2002-11-28 15:15:35 51°13.592 2°51.733 20.315652 0.070277 0.355365  
2002-11-28 15:16:35 51°13.715 2°52.045 20.489466 0.070277 0.355365  
2002-11-28 15:17:35 51°13.836 2°52.359 20.505418 0.070277 0.355355  
2002-11-28 15:18:35 51°13.97 2°52.644 20.584881 0.070277 0.355365  
2002-11-28 15:19:35 51°14.028 2°52.834 20.464105 0.070277 0.355365  
2002-11-28 15:20:35 51°14.066 2°52.943 20.474475 0.070277 0.355365  
2002-11-28 15:21:35 51°14.109 2°53.012 20.716548 0.070277 0.35536  
2002-11-28 15:22:35 51°14.14 2°53.074 20.431254 0.070277 0.355375  
2002-11-28 15:23:35 51°14.165 2°53.132 20.66614 0.070277 0.35537  
2002-11-28 15:24:35 51°14.191 2°53.198 20.575972 0.070277 0.35537  
2002-11-28 15:25:35 51°14.224 2°53.297 20.877991 0.070277 0.355365  
2002-11-28 15:26:35 51°14.274 2°53.472 20.66165 0.070277 0.35536  
2002-11-28 15:27:35 51°14.372 2°53.756 20.574888 0.070277 0.35536  
2002-11-28 15:28:35 51°14.454 2°54.067 20.545382 0.070277 0.35536  
2002-11-28 15:29:35 51°14.505 2°54.396 20.680288 0.070277 0.35536  
2002-11-28 15:30:35 51°14.5 2°54.723 27.884849 0.070277 0.35536  
2002-11-28 15:31:34 51°14.4 2°54.994 27.92465 0.070277 0.355355  
2002-11-28 15:32:34 51°14.29 2°55.215 26.964077 0.070277 0.35536  
2002-11-28 15:33:32 51°14.217 2°55.337 30.001755 0.070277 0.355345  
2002-11-28 15:34:39 51°14.142 2°55.421 29.673676 0.070277 0.355345  
2002-11-28 15:35:39 51°14.076 2°55.479 29.403619 0.070277 0.35534  
2002-11-28 15:36:39 51°14.008 2°55.531 29.47166 0.070277 0.355334  
2002-11-28 15:37:39 51°13.927 2°55.581 29.39359 0.070277 0.355334